| time (UTC) | temp F | wind direction | speed MPH | gust MPH | rain 1hr in | rain 24hr in | rain mn in | humidity % | barometer mb |
| 20260904145829 | 79 | 313 | 4.0 | 10.0 | 0.01 | 0.26 | 0.26 | 71 | 1012.3 |
| 20260904145326 | 78 | 348 | 4.0 | 15.0 | 0.01 | 0.26 | 0.26 | 72 | 1012.3 |
| 20260904144823 | 78 | 348 | 5.0 | 12.0 | 0.00 | 0.25 | 0.25 | 73 | 1012.4 |
| 20260904144320 | 78 | 312 | 4.0 | 11.0 | 0.00 | 0.25 | 0.25 | 73 | 1012.3 |
| 20260904143821 | 78 | 23 | 6.0 | 11.0 | 0.00 | 0.25 | 0.25 | 73 | 1012.2 |
| 20260904143318 | 79 | 277 | 6.0 | 10.0 | 0.00 | 0.25 | 0.25 | 73 | 1012.2 |
| 20260904142815 | 79 | 329 | 2.0 | 8.0 | 0.00 | 0.25 | 0.25 | 74 | 1012.2 |
| 20260904142312 | 78 | 223 | 3.0 | 9.0 | 0.00 | 0.25 | 0.25 | 74 | 1012.2 |
| 20260904141829 | 78 | 360 | 5.0 | 9.0 | 0.00 | 0.25 | 0.25 | 74 | 1012.2 |
| 20260904141326 | 78 | 38 | 2.0 | 11.0 | 0.00 | 0.25 | 0.25 | 74 | 1012.1 |
| 20260904140823 | 78 | 333 | 5.0 | 11.0 | 0.00 | 0.25 | 0.25 | 74 | 1012.1 |
| 20260904140324 | 78 | 291 | 1.0 | 10.0 | 0.00 | 0.25 | 0.25 | 78 | 1012.0 |
| 20260904135820 | 78 | 281 | 5.0 | 10.0 | 0.00 | 0.25 | 0.25 | 76 | 1012.0 |
| 20260904135318 | 78 | 336 | 2.0 | 8.0 | 0.00 | 0.25 | 0.25 | 76 | 1011.9 |
| 20260904134815 | 77 | 191 | 2.0 | 8.0 | 0.00 | 0.25 | 0.25 | 78 | 1012.0 |
| 20260904134330 | 77 | 321 | 4.0 | 8.0 | 0.00 | 0.25 | 0.25 | 78 | 1012.0 |
| 20260904133827 | 77 | 340 | 4.0 | 8.0 | 0.00 | 0.25 | 0.25 | 78 | 1011.9 |
| 20260904133324 | 77 | 319 | 3.0 | 8.0 | 0.00 | 0.25 | 0.25 | 79 | 1012.1 |
| 20260904132825 | 77 | 314 | 3.0 | 8.0 | 0.00 | 0.25 | 0.25 | 78 | 1012.2 |
| 20260904132322 | 77 | 331 | 1.0 | 9.0 | 0.00 | 0.25 | 0.25 | 80 | 1012.1 |
| 20260904131819 | 77 | 321 | 3.0 | 9.0 | 0.00 | 0.25 | 0.25 | 79 | 1012.1 |
| 20260904131315 | 77 | 338 | 2.0 | 6.0 | 0.00 | 0.25 | 0.25 | 80 | 1012.0 |
| 20260904130812 | 76 | 5 | 1.0 | 8.0 | 0.00 | 0.25 | 0.25 | 81 | 1012.0 |
| 20260904130329 | 76 | 344 | 2.0 | 8.0 | 0.00 | 0.25 | 0.25 | 81 | 1011.9 |
| 20260904125825 | 76 | 355 | 4.0 | 5.0 | 0.00 | 0.25 | 0.25 | 82 | 1012.1 |
| 20260904125326 | 76 | 347 | 2.0 | 8.0 | 0.00 | 0.25 | 0.25 | 82 | 1012.1 |
| 20260904124823 | 75 | 328 | 3.0 | 9.0 | 0.00 | 0.25 | 0.25 | 83 | 1012.2 |
| 20260904124321 | 75 | 326 | 4.0 | 11.0 | 0.00 | 0.25 | 0.25 | 84 | 1012.2 |
| 20260904123818 | 75 | 309 | 5.0 | 11.0 | 0.00 | 0.25 | 0.25 | 85 | 1012.2 |
| 20260904123315 | 75 | 29 | 5.0 | 10.0 | 0.00 | 0.25 | 0.25 | 85 | 1012.1 |
| 20260904122812 | 75 | 313 | 3.0 | 8.0 | 0.00 | 0.25 | 0.25 | 86 | 1012.1 |
| 20260904122313 | 75 | 333 | 3.0 | 8.0 | 0.00 | 0.25 | 0.25 | 87 | 1012.0 |
| 20260904121830 | 75 | 316 | 3.0 | 5.0 | 0.00 | 0.25 | 0.25 | 88 | 1011.9 |
| 20260904121327 | 74 | 313 | 2.0 | 5.0 | 0.00 | 0.25 | 0.25 | 89 | 1011.8 |
| 20260904120824 | 74 | 348 | 3.0 | 4.0 | 0.00 | 0.25 | 0.25 | 89 | 1011.8 |
| 20260904120321 | 74 | 304 | 2.0 | 5.0 | 0.00 | 0.25 | 0.25 | 89 | 1011.6 |
| 20260904115818 | 74 | 329 | 2.0 | 5.0 | 0.00 | 0.25 | 0.25 | 90 | 1011.7 |
| 20260904115315 | 74 | 317 | 2.0 | 6.0 | 0.00 | 0.25 | 0.25 | 91 | 1011.7 |
| 20260904114816 | 73 | 306 | 3.0 | 6.0 | 0.00 | 0.25 | 0.25 | 92 | 1011.4 |
| 20260904114314 | 73 | 35 | 1.0 | 4.0 | 0.00 | 0.25 | 0.25 | 93 | 1011.4 |
| 20260904113811 | 73 | 297 | 0.0 | 6.0 | 0.00 | 0.25 | 0.25 | 94 | 1011.5 |
| 20260904113328 | 73 | 325 | 2.0 | 6.0 | 0.00 | 0.25 | 0.25 | 94 | 1011.6 |
| 20260904112825 | 72 | 341 | 1.0 | 7.0 | 0.00 | 0.25 | 0.25 | 94 | 1011.4 |
| 20260904112321 | 72 | 315 | 2.0 | 5.0 | 0.00 | 0.25 | 0.25 | 95 | 1011.4 |
| 20260904111818 | 72 | 327 | 1.0 | 6.0 | 0.00 | 0.25 | 0.25 | 95 | 1011.4 |
| 20260904111319 | 72 | 335 | 2.0 | 6.0 | 0.00 | 0.25 | 0.25 | 95 | 1011.4 |
| 20260904110816 | 72 | 248 | 2.0 | 5.0 | 0.00 | 0.25 | 0.25 | 95 | 1011.2 |
| 20260904110313 | 72 | 309 | 3.0 | 5.0 | 0.00 | 0.25 | 0.25 | 95 | 1011.2 |
| 20260904105830 | 72 | 347 | 2.0 | 5.0 | 0.00 | 0.25 | 0.25 | 95 | 1011.2 |
| 20260904105328 | 72 | 343 | 2.0 | 6.0 | 0.00 | 0.25 | 0.25 | 95 | 1011.4 |
| 20260904104825 | 72 | 301 | 2.0 | 8.0 | 0.00 | 0.25 | 0.25 | 95 | 1011.5 |
| 20260904104322 | 72 | 306 | 4.0 | 8.0 | 0.00 | 0.25 | 0.25 | 95 | 1011.3 |
| 20260904103823 | 72 | 355 | 3.0 | 6.0 | 0.00 | 0.25 | 0.25 | 95 | 1011.2 |
| 20260904103320 | 72 | 296 | 3.0 | 6.0 | 0.00 | 0.25 | 0.25 | 95 | 1011.2 |
| 20260904102817 | 72 | 331 | 1.0 | 5.0 | 0.00 | 0.25 | 0.25 | 95 | 1011.2 |
| 20260904102315 | 72 | 315 | 2.0 | 10.0 | 0.00 | 0.25 | 0.25 | 95 | 1011.3 |
| 20260904101812 | 72 | 265 | 1.0 | 10.0 | 0.00 | 0.25 | 0.25 | 95 | 1011.1 |
| 20260904101329 | 72 | 304 | 2.0 | 9.0 | 0.00 | 0.25 | 0.25 | 95 | 1011.2 |
| 20260904100826 | 72 | 329 | 2.0 | 8.0 | 0.00 | 0.25 | 0.25 | 95 | 1011.1 |
| 20260904100327 | 72 | 328 | 3.0 | 8.0 | 0.00 | 0.25 | 0.25 | 95 | 1010.9 |
| 20260904095824 | 72 | 344 | 4.0 | 8.0 | 0.00 | 0.25 | 0.25 | 95 | 1010.8 |
| 20260904095322 | 72 | 355 | 3.0 | 8.0 | 0.00 | 0.25 | 0.25 | 95 | 1010.7 |
| 20260904094819 | 72 | 313 | 3.0 | 8.0 | 0.00 | 0.25 | 0.25 | 95 | 1010.7 |
| 20260904094316 | 72 | 355 | 3.0 | 6.0 | 0.00 | 0.25 | 0.25 | 95 | 1010.7 |
| 20260904093813 | 72 | 326 | 3.0 | 6.0 | 0.00 | 0.25 | 0.25 | 95 | 1010.7 |
| 20260904093330 | 72 | 355 | 3.0 | 5.0 | 0.00 | 0.25 | 0.25 | 95 | 1010.7 |
| 20260904092811 | 72 | 319 | 3.0 | 5.0 | 0.00 | 0.25 | 0.25 | 95 | 1010.7 |
| 20260904092329 | 72 | 315 | 2.0 | 6.0 | 0.00 | 0.25 | 0.25 | 95 | 1010.6 |
| 20260904091826 | 72 | 306 | 2.0 | 6.0 | 0.00 | 0.25 | 0.25 | 95 | 1010.7 |
| 20260904091323 | 72 | 275 | 1.0 | 5.0 | 0.00 | 0.25 | 0.25 | 95 | 1010.7 |
| 20260904090820 | 72 | 323 | 2.0 | 4.0 | 0.00 | 0.25 | 0.25 | 95 | 1010.7 |
| 20260904090317 | 72 | 298 | 1.0 | 5.0 | 0.00 | 0.25 | 0.25 | 95 | 1010.9 |
| 20260904085814 | 72 | 294 | 2.0 | 5.0 | 0.00 | 0.28 | 0.25 | 95 | 1010.7 |
| 20260904085315 | 72 | 336 | 1.0 | 5.0 | 0.00 | 0.28 | 0.25 | 95 | 1010.7 |
| 20260904084812 | 72 | 309 | 1.0 | 5.0 | 0.00 | 0.28 | 0.25 | 95 | 1010.8 |
| 20260904084329 | 72 | 318 | 3.0 | 5.0 | 0.00 | 0.28 | 0.25 | 95 | 1010.6 |
| 20260904083826 | 72 | 355 | 1.0 | 3.0 | 0.00 | 0.28 | 0.25 | 95 | 1010.8 |
| 20260904083323 | 72 | 355 | 1.0 | 4.0 | 0.00 | 0.28 | 0.25 | 95 | 1010.9 |
| 20260904082820 | 72 | 342 | 1.0 | 4.0 | 0.00 | 0.28 | 0.25 | 95 | 1010.9 |
| 20260904082318 | 72 | 321 | 1.0 | 4.0 | 0.00 | 0.28 | 0.25 | 95 | 1010.8 |
| 20260904081819 | 72 | 261 | 1.0 | 4.0 | 0.00 | 0.28 | 0.25 | 95 | 1010.7 |
| 20260904081316 | 72 | 282 | 1.0 | 4.0 | 0.00 | 0.28 | 0.25 | 95 | 1010.7 |
| 20260904080813 | 72 | 261 | 0.0 | 2.0 | 0.00 | 0.28 | 0.25 | 95 | 1010.6 |
| 20260904080330 | 72 | 298 | 0.0 | 2.0 | 0.00 | 0.28 | 0.25 | 95 | 1010.5 |
| 20260904075826 | 72 | 315 | 1.0 | 3.0 | 0.00 | 0.29 | 0.25 | 95 | 1010.6 |
| 20260904075323 | 72 | 314 | 0.0 | 4.0 | 0.00 | 0.29 | 0.25 | 95 | 1010.7 |
| 20260904074820 | 72 | 294 | 0.0 | 4.0 | 0.00 | 0.29 | 0.25 | 95 | 1010.6 |
| 20260904074321 | 71 | 332 | 0.0 | 1.0 | 0.00 | 0.29 | 0.25 | 94 | 1010.7 |
| 20260904073818 | 71 | 278 | 0.0 | 0.0 | 0.00 | 0.29 | 0.25 | 94 | 1010.6 |
| 20260904073315 | 71 | 278 | 0.0 | 1.0 | 0.00 | 0.29 | 0.25 | 94 | 1010.5 |
| 20260904072812 | 71 | 278 | 0.0 | 1.0 | 0.00 | 0.29 | 0.25 | 94 | 1010.5 |
| 20260904072329 | 71 | 278 | 0.0 | 1.0 | 0.00 | 0.29 | 0.25 | 94 | 1010.5 |
| 20260904071826 | 71 | 278 | 0.0 | 3.0 | 0.00 | 0.29 | 0.25 | 94 | 1010.4 |
| 20260904071324 | 71 | 337 | 0.0 | 3.0 | 0.01 | 0.29 | 0.25 | 94 | 1010.3 |
| 20260904070825 | 71 | 286 | 0.0 | 1.0 | 0.06 | 0.29 | 0.25 | 93 | 1010.3 |
| 20260904070322 | 71 | 223 | 0.0 | 2.0 | 0.14 | 0.29 | 0.25 | 93 | 1010.3 |
| 20260904065819 | 71 | 223 | 0.0 | 3.0 | 0.22 | 0.38 | 0.25 | 93 | 1010.3 |
| 20260904065316 | 71 | 312 | 1.0 | 4.0 | 0.25 | 0.38 | 0.25 | 93 | 1010.3 |
| 20260904064813 | 71 | 329 | 2.0 | 4.0 | 0.25 | 0.38 | 0.25 | 93 | 1010.2 |
| 20260904064330 | 71 | 317 | 2.0 | 3.0 | 0.25 | 0.38 | 0.25 | 93 | 1010.2 |
| 20260904063811 | 71 | 329 | 0.0 | 3.0 | 0.25 | 0.38 | 0.25 | 92 | 1010.3 |
| 20260904063328 | 72 | 329 | 1.0 | 3.0 | 0.25 | 0.38 | 0.25 | 92 | 1010.2 |
| 20260904062825 | 72 | 296 | 0.0 | 2.0 | 0.25 | 0.38 | 0.25 | 92 | 1010.3 |
| 20260904062323 | 72 | 334 | 0.0 | 2.0 | 0.25 | 0.38 | 0.25 | 92 | 1010.4 |
| 20260904061820 | 72 | 197 | 0.0 | 3.0 | 0.25 | 0.38 | 0.25 | 91 | 1010.4 |
| 20260904061317 | 73 | 140 | 0.0 | 4.0 | 0.24 | 0.37 | 0.24 | 90 | 1010.5 |
| 20260904060814 | 73 | 9 | 1.0 | 13.0 | 0.18 | 0.31 | 0.18 | 89 | 1011.6 |
| 20260904060315 | 75 | 338 | 4.0 | 20.0 | 0.09 | 0.22 | 0.09 | 87 | 1012.3 |
| 20260904055812 | 76 | 49 | 4.0 | 20.0 | 0.03 | 0.21 | 0.03 | 84 | 1012.0 |
| 20260904055330 | 77 | 275 | 3.0 | 8.0 | 0.00 | 0.18 | 0.00 | 85 | 1011.8 |
| 20260904054827 | 77 | 319 | 1.0 | 5.0 | 0.00 | 0.18 | 0.00 | 85 | 1011.6 |
| 20260904054324 | 77 | 259 | 1.0 | 6.0 | 0.00 | 0.18 | 0.00 | 86 | 1011.5 |
| 20260904053821 | 76 | 272 | 1.0 | 6.0 | 0.00 | 0.18 | 0.00 | 86 | 1011.2 |
| 20260904053318 | 76 | 14 | 1.0 | 2.0 | 0.00 | 0.18 | 0.00 | 87 | 1011.5 |
| 20260904052819 | 76 | 284 | 0.0 | 4.0 | 0.00 | 0.18 | 0.00 | 88 | 1011.6 |
| 20260904052316 | 76 | 298 | 1.0 | 4.0 | 0.00 | 0.18 | 0.00 | 89 | 1011.7 |
| 20260904051813 | 75 | 284 | 0.0 | 3.0 | 0.00 | 0.18 | 0.00 | 90 | 1011.6 |
| 20260904051330 | 75 | 317 | 0.0 | 2.0 | 0.00 | 0.18 | 0.00 | 91 | 1011.7 |
| 20260904050827 | 75 | 338 | 0.0 | 0.0 | 0.00 | 0.18 | 0.00 | 91 | 1011.7 |
| 20260904050324 | 75 | 338 | 0.0 | 0.0 | 0.00 | 0.18 | 0.00 | 90 | 1011.6 |
| 20260904045821 | 75 | 338 | 0.0 | 0.0 | 0.00 | 0.31 | 0.00 | 90 | 1011.4 |
| 20260904045322 | 75 | 338 | 0.0 | 0.0 | 0.00 | 0.31 | 0.00 | 90 | 1011.2 |
| 20260904044819 | 75 | 338 | 0.0 | 0.0 | 0.00 | 0.31 | 0.00 | 90 | 1011.1 |
| 20260904044315 | 76 | 338 | 0.0 | 0.0 | 0.00 | 0.31 | 0.00 | 89 | 1011.3 |
| 20260904043812 | 76 | 338 | 0.0 | 0.0 | 0.00 | 0.31 | 0.00 | 88 | 1011.4 |
| 20260904043329 | 76 | 338 | 0.0 | 0.0 | 0.00 | 0.31 | 0.00 | 88 | 1011.5 |
| 20260904042826 | 76 | 29 | 0.0 | 0.0 | 0.00 | 0.31 | 0.00 | 88 | 1011.6 |
| 20260904042324 | 76 | 350 | 0.0 | 0.0 | 0.00 | 0.31 | 0.00 | 88 | 1011.7 |
| 20260904041825 | 76 | 350 | 0.0 | 0.0 | 0.00 | 0.31 | 0.00 | 88 | 1011.9 |
| 20260904041322 | 76 | 350 | 0.0 | 0.0 | 0.00 | 0.31 | 0.00 | 88 | 1011.9 |
| 20260904040819 | 76 | 355 | 0.0 | 0.0 | 0.00 | 0.31 | 0.00 | 88 | 1012.0 |
| 20260904040316 | 76 | 355 | 0.0 | 0.0 | 0.00 | 0.31 | 0.00 | 88 | 1012.0 |
| 20260904035813 | 76 | 355 | 0.0 | 0.0 | 0.00 | 0.31 | 0.31 | 88 | 1012.0 |
| 20260904035311 | 76 | 355 | 0.0 | 0.0 | 0.00 | 0.31 | 0.31 | 88 | 1012.0 |
| 20260904034828 | 76 | 355 | 0.0 | 0.0 | 0.00 | 0.31 | 0.31 | 88 | 1012.1 |
| 20260904034329 | 76 | 355 | 0.0 | 0.0 | 0.00 | 0.31 | 0.31 | 88 | 1012.1 |
| 20260904033826 | 76 | 22 | 0.0 | 0.0 | 0.00 | 0.31 | 0.31 | 88 | 1012.2 |
| 20260904033323 | 76 | 319 | 0.0 | 0.0 | 0.00 | 0.31 | 0.31 | 88 | 1012.1 |
| 20260904032819 | 76 | 319 | 0.0 | 0.0 | 0.00 | 0.31 | 0.31 | 88 | 1012.0 |
| 20260904032316 | 76 | 319 | 0.0 | 0.0 | 0.00 | 0.31 | 0.31 | 87 | 1011.9 |
| 20260904031813 | 76 | 319 | 0.0 | 0.0 | 0.00 | 0.31 | 0.31 | 87 | 1011.9 |
| 20260904031330 | 76 | 319 | 0.0 | 0.0 | 0.00 | 0.31 | 0.31 | 87 | 1011.9 |
| 20260904030811 | 76 | 319 | 0.0 | 0.0 | 0.00 | 0.31 | 0.31 | 87 | 1011.9 |
| 20260904030328 | 77 | 319 | 0.0 | 0.0 | 0.00 | 0.31 | 0.31 | 87 | 1012.0 |
| 20260904025825 | 77 | 319 | 0.0 | 0.0 | 0.00 | 0.31 | 0.31 | 87 | 1011.9 |
| 20260904025322 | 77 | 319 | 0.0 | 0.0 | 0.00 | 0.31 | 0.31 | 86 | 1011.8 |
| 20260904024819 | 77 | 319 | 0.0 | 0.0 | 0.00 | 0.31 | 0.31 | 87 | 1011.9 |
| 20260904024316 | 77 | 319 | 0.0 | 0.0 | 0.00 | 0.31 | 0.31 | 87 | 1012.1 |
| 20260904023813 | 77 | 319 | 0.0 | 0.0 | 0.00 | 0.31 | 0.31 | 88 | 1012.4 |
| 20260904023314 | 76 | 319 | 0.0 | 0.0 | 0.00 | 0.31 | 0.31 | 87 | 1012.6 |
| 20260904022811 | 77 | 319 | 0.0 | 0.0 | 0.00 | 0.31 | 0.31 | 87 | 1012.6 |
| 20260904022329 | 77 | 306 | 0.0 | 0.0 | 0.00 | 0.31 | 0.31 | 86 | 1012.4 |
| 20260904021826 | 77 | 306 | 0.0 | 0.0 | 0.00 | 0.31 | 0.31 | 86 | 1012.5 |
| 20260904021322 | 77 | 306 | 0.0 | 0.0 | 0.00 | 0.31 | 0.31 | 86 | 1012.6 |
| 20260904020819 | 77 | 306 | 0.0 | 0.0 | 0.00 | 0.31 | 0.31 | 86 | 1012.7 |
| 20260904020316 | 78 | 306 | 0.0 | 2.0 | 0.00 | 0.31 | 0.31 | 84 | 1012.8 |
| 20260904015816 | 78 | 306 | 0.0 | 2.0 | 0.00 | 0.32 | 0.31 | 84 | 1012.8 |
| 20260904015314 | 78 | 311 | 1.0 | 2.0 | 0.00 | 0.32 | 0.31 | 83 | 1012.8 |
| 20260904014811 | 78 | 190 | 0.0 | 3.0 | 0.00 | 0.32 | 0.31 | 84 | 1012.7 |
| 20260904014328 | 78 | 326 | 0.0 | 0.0 | 0.00 | 0.32 | 0.31 | 84 | 1012.9 |
| 20260904013825 | 78 | 336 | 0.0 | 0.0 | 0.00 | 0.32 | 0.31 | 84 | 1012.9 |
| 20260904013322 | 78 | 336 | 0.0 | 0.0 | 0.00 | 0.32 | 0.31 | 84 | 1013.0 |
| 20260904012819 | 78 | 202 | 0.0 | 1.0 | 0.00 | 0.32 | 0.31 | 85 | 1013.1 |
| 20260904012321 | 77 | 198 | 0.0 | 1.0 | 0.00 | 0.32 | 0.31 | 87 | 1013.0 |
| 20260904011818 | 77 | 203 | 0.0 | 0.0 | 0.00 | 0.32 | 0.31 | 87 | 1013.0 |
| 20260904011315 | 77 | 212 | 0.0 | 0.0 | 0.00 | 0.32 | 0.31 | 87 | 1012.9 |
| 20260904010812 | 77 | 212 | 0.0 | 0.0 | 0.00 | 0.32 | 0.31 | 87 | 1012.8 |
| 20260904010329 | 77 | 212 | 0.0 | 0.0 | 0.00 | 0.32 | 0.31 | 87 | 1012.8 |
| 20260904005826 | 77 | 212 | 0.0 | 0.0 | 0.00 | 0.32 | 0.31 | 87 | 1012.7 |
| 20260904005324 | 77 | 212 | 0.0 | 0.0 | 0.00 | 0.32 | 0.31 | 85 | 1012.8 |
| 20260904004825 | 77 | 212 | 0.0 | 0.0 | 0.00 | 0.32 | 0.31 | 86 | 1012.8 |
| 20260904004322 | 77 | 212 | 0.0 | 0.0 | 0.00 | 0.32 | 0.31 | 85 | 1012.5 |
| 20260904003819 | 77 | 212 | 0.0 | 0.0 | 0.00 | 0.32 | 0.31 | 85 | 1012.6 |
| 20260904003316 | 78 | 212 | 0.0 | 0.0 | 0.00 | 0.32 | 0.31 | 84 | 1012.6 |
| 20260904002813 | 78 | 212 | 0.0 | 0.0 | 0.00 | 0.32 | 0.31 | 83 | 1012.5 |
| 20260904002311 | 78 | 212 | 0.0 | 0.0 | 0.00 | 0.32 | 0.31 | 83 | 1012.2 |
| 20260904001812 | 78 | 212 | 0.0 | 0.0 | 0.00 | 0.32 | 0.31 | 83 | 1012.4 |
| 20260904001329 | 78 | 212 | 0.0 | 0.0 | 0.00 | 0.32 | 0.31 | 83 | 1012.2 |
| 20260904000826 | 78 | 212 | 0.0 | 0.0 | 0.00 | 0.32 | 0.31 | 84 | 1012.3 |
| 20260904000325 | 78 | 212 | 0.0 | 0.0 | 0.00 | 0.32 | 0.31 | 84 | 1012.5 |
| 20260903235820 | 78 | 212 | 0.0 | 0.0 | 0.00 | 0.32 | 0.31 | 84 | 1012.6 |
| 20260903235317 | 78 | 212 | 0.0 | 0.0 | 0.00 | 0.32 | 0.31 | 84 | 1012.6 |
| 20260903234814 | 78 | 212 | 0.0 | 0.0 | 0.00 | 0.32 | 0.31 | 84 | 1012.4 |
| 20260903234313 | 78 | 212 | 0.0 | 0.0 | 0.00 | 0.32 | 0.31 | 84 | 1012.3 |
| 20260903233830 | 78 | 212 | 0.0 | 0.0 | 0.00 | 0.32 | 0.31 | 84 | 1012.3 |
| 20260903233327 | 78 | 212 | 0.0 | 0.0 | 0.00 | 0.32 | 0.31 | 84 | 1012.2 |
| 20260903232824 | 78 | 212 | 0.0 | 0.0 | 0.00 | 0.32 | 0.31 | 84 | 1012.3 |
| 20260903232322 | 79 | 212 | 0.0 | 0.0 | 0.00 | 0.32 | 0.31 | 83 | 1012.3 |
| 20260903231819 | 79 | 212 | 0.0 | 0.0 | 0.00 | 0.32 | 0.31 | 83 | 1012.2 |
| 20260903231315 | 79 | 212 | 0.0 | 0.0 | 0.00 | 0.32 | 0.31 | 82 | 1012.2 |
| 20260903230816 | 80 | 212 | 0.0 | 0.0 | 0.00 | 0.32 | 0.31 | 82 | 1012.2 |
| 20260903230313 | 80 | 212 | 0.0 | 0.0 | 0.00 | 0.32 | 0.31 | 83 | 1012.1 |
| 20260903225830 | 80 | 212 | 0.0 | 0.0 | 0.00 | 0.32 | 0.31 | 82 | 1012.2 |
| 20260903225328 | 81 | 212 | 0.0 | 0.0 | 0.00 | 0.32 | 0.31 | 82 | 1012.2 |
| 20260903224825 | 81 | 212 | 0.0 | 0.0 | 0.00 | 0.32 | 0.31 | 81 | 1012.3 |
| 20260903224322 | 81 | 212 | 0.0 | 0.0 | 0.00 | 0.32 | 0.31 | 81 | 1012.2 |
| 20260903223819 | 81 | 213 | 0.0 | 0.0 | 0.00 | 0.32 | 0.31 | 80 | 1012.2 |
| 20260903223320 | 82 | 213 | 0.0 | 0.0 | 0.00 | 0.32 | 0.31 | 80 | 1012.1 |
| 20260903222816 | 81 | 213 | 0.0 | 0.0 | 0.00 | 0.32 | 0.31 | 80 | 1012.3 |
| 20260903222314 | 82 | 213 | 0.0 | 0.0 | 0.00 | 0.32 | 0.31 | 78 | 1012.3 |
| 20260903221811 | 83 | 213 | 0.0 | 0.0 | 0.00 | 0.32 | 0.31 | 77 | 1012.4 |
| 20260903221328 | 83 | 284 | 0.0 | 0.0 | 0.00 | 0.32 | 0.31 | 74 | 1012.3 |
| 20260903220825 | 83 | 288 | 0.0 | 0.0 | 0.00 | 0.32 | 0.31 | 72 | 1012.3 |
| 20260903220322 | 84 | 294 | 0.0 | 0.0 | 0.00 | 0.32 | 0.31 | 72 | 1012.3 |
| 20260903215823 | 84 | 294 | 0.0 | 1.0 | 0.00 | 0.32 | 0.31 | 70 | 1012.3 |
| 20260903215321 | 85 | 292 | 0.0 | 2.0 | 0.00 | 0.32 | 0.31 | 70 | 1012.2 |
| 20260903214818 | 85 | 308 | 1.0 | 2.0 | 0.00 | 0.32 | 0.31 | 69 | 1012.1 |
| 20260903214315 | 84 | 315 | 0.0 | 8.0 | 0.00 | 0.32 | 0.31 | 70 | 1012.1 |
| 20260903213812 | 84 | 261 | 1.0 | 8.0 | 0.00 | 0.32 | 0.31 | 69 | 1012.0 |
| 20260903213329 | 84 | 321 | 0.0 | 3.0 | 0.00 | 0.32 | 0.31 | 70 | 1012.0 |
| 20260903212826 | 84 | 348 | 0.0 | 0.0 | 0.00 | 0.32 | 0.31 | 73 | 1012.0 |
| 20260903212327 | 84 | 5 | 0.0 | 2.0 | 0.00 | 0.32 | 0.31 | 72 | 1012.0 |
| 20260903211824 | 85 | 319 | 0.0 | 2.0 | 0.00 | 0.32 | 0.31 | 71 | 1012.0 |
| 20260903211321 | 84 | 349 | 0.0 | 2.0 | 0.00 | 0.32 | 0.31 | 71 | 1012.1 |
| 20260903210818 | 84 | 79 | 1.0 | 2.0 | 0.00 | 0.32 | 0.31 | 70 | 1012.1 |
| 20260903210315 | 84 | 16 | 1.0 | 4.0 | 0.00 | 0.32 | 0.31 | 70 | 1012.1 |
| 20260903205812 | 84 | 262 | 0.0 | 5.0 | 0.00 | 0.32 | 0.31 | 70 | 1012.2 |
| 20260903205328 | 85 | 325 | 1.0 | 5.0 | 0.00 | 0.32 | 0.31 | 68 | 1012.2 |
| 20260903204829 | 85 | 240 | 1.0 | 4.0 | 0.00 | 0.32 | 0.31 | 67 | 1012.2 |
| 20260903204326 | 85 | 20 | 1.0 | 10.0 | 0.00 | 0.32 | 0.31 | 67 | 1012.2 |
| 20260903203823 | 85 | 309 | 4.0 | 10.0 | 0.00 | 0.32 | 0.31 | 67 | 1012.2 |
| 20260903203320 | 85 | 355 | 0.0 | 5.0 | 0.00 | 0.32 | 0.31 | 68 | 1012.1 |
| 20260903202817 | 85 | 9 | 3.0 | 8.0 | 0.00 | 0.32 | 0.31 | 68 | 1012.3 |
| 20260903202314 | 85 | 334 | 1.0 | 8.0 | 0.00 | 0.32 | 0.31 | 66 | 1012.3 |
| 20260903201811 | 85 | 327 | 1.0 | 6.0 | 0.00 | 0.32 | 0.31 | 68 | 1012.3 |
| 20260903201312 | 85 | 5 | 2.0 | 7.0 | 0.00 | 0.32 | 0.31 | 67 | 1012.2 |
| 20260903200829 | 85 | 9 | 3.0 | 6.0 | 0.00 | 0.32 | 0.31 | 66 | 1012.3 |
| 20260903200326 | 85 | 344 | 2.0 | 4.0 | 0.00 | 0.32 | 0.31 | 66 | 1012.2 |
| 20260903195822 | 85 | 117 | 1.0 | 4.0 | 0.00 | 0.32 | 0.31 | 69 | 1012.3 |
| 20260903195320 | 84 | 355 | 1.0 | 6.0 | 0.00 | 0.32 | 0.31 | 67 | 1012.3 |
| 20260903194817 | 84 | 345 | 1.0 | 6.0 | 0.00 | 0.32 | 0.31 | 69 | 1012.3 |
| 20260903194314 | 85 | 274 | 2.0 | 4.0 | 0.00 | 0.32 | 0.31 | 68 | 1012.4 |
| 20260903193815 | 84 | 333 | 2.0 | 4.0 | 0.00 | 0.32 | 0.31 | 67 | 1012.4 |
| 20260903193312 | 85 | 325 | 1.0 | 5.0 | 0.00 | 0.32 | 0.31 | 67 | 1012.4 |
| 20260903192828 | 84 | 9 | 2.0 | 5.0 | 0.00 | 0.32 | 0.31 | 68 | 1012.4 |
| 20260903192326 | 84 | 355 | 1.0 | 5.0 | 0.00 | 0.32 | 0.31 | 69 | 1012.5 |
| 20260903191823 | 84 | 360 | 2.0 | 9.0 | 0.00 | 0.32 | 0.31 | 68 | 1012.5 |
| 20260903191320 | 84 | 347 | 1.0 | 8.0 | 0.00 | 0.32 | 0.31 | 69 | 1012.6 |
| 20260903190817 | 83 | 342 | 2.0 | 8.0 | 0.00 | 0.32 | 0.31 | 70 | 1012.6 |
| 20260903190318 | 83 | 194 | 2.0 | 8.0 | 0.00 | 0.32 | 0.31 | 70 | 1012.7 |
| 20260903185814 | 83 | 306 | 3.0 | 8.0 | 0.00 | 0.34 | 0.31 | 70 | 1012.7 |
| 20260903185311 | 83 | 333 | 2.0 | 10.0 | 0.00 | 0.34 | 0.31 | 70 | 1012.8 |
| 20260903184828 | 83 | 321 | 4.0 | 10.0 | 0.00 | 0.34 | 0.31 | 70 | 1012.8 |
| 20260903184326 | 83 | 290 | 3.0 | 10.0 | 0.00 | 0.34 | 0.31 | 71 | 1013.0 |
| 20260903183823 | 83 | 306 | 1.0 | 10.0 | 0.00 | 0.34 | 0.31 | 70 | 1013.1 |
| 20260903183320 | 83 | 240 | 0.0 | 7.0 | 0.00 | 0.34 | 0.31 | 71 | 1013.0 |
| 20260903182820 | 83 | 350 | 2.0 | 8.0 | 0.00 | 0.34 | 0.31 | 70 | 1013.0 |
| 20260903182318 | 82 | 248 | 1.0 | 14.0 | 0.00 | 0.34 | 0.31 | 71 | 1013.2 |
| 20260903181815 | 82 | 349 | 3.0 | 9.0 | 0.00 | 0.34 | 0.31 | 72 | 1013.1 |
| 20260903181311 | 82 | 217 | 3.0 | 12.0 | 0.00 | 0.34 | 0.31 | 72 | 1013.1 |
| 20260903180828 | 82 | 325 | 4.0 | 12.0 | 0.00 | 0.34 | 0.31 | 72 | 1013.2 |
| 20260903180325 | 82 | 304 | 3.0 | 9.0 | 0.00 | 0.34 | 0.31 | 71 | 1013.2 |